Regional Weather Roundup
Issued by NWS

Home | Current Version | Previous Version | Graphics & Text | Print | Product List | Glossary On
Versions: 1 2 3 4 5 6 7 8 9 10 11 12 13 14 15 16 17 18 19 20 21 22 23 24 25 26 27 28 29 30 31 32 33 34 35 36 37 38 39 40 41 42 43 44 45 46 47 48 49 50
000
ASUS45 KSLC 170910
RWRUT

UTAH REGIONAL WEATHER ROUNDUP
NATIONAL WEATHER SERVICE SALT LAKE CITY UT
300 AM MDT TUE OCT 17 2017

UTZ001>011-023>025-171000-

NORTHERN UTAH

CITY           SKY/WX    TMP DP  RH WIND       PRES   REMARKS
BRIGHAM CITY   CLEAR     35  25  67 CALM      30.34S
HILL AFB       CLEAR     44  13  28 E17       30.33R
LOGAN          CLEAR     35  24  64 S3        30.34S
OGDEN          CLEAR     41  18  39 S7        30.32S
SALT LAKE CITY CLEAR     41  32  70 SE5       30.32S
TOOELE VALLEY  CLEAR     32  25  74 SE6       30.33S WCI  26
WENDOVER       PTCLDY    38  18  44 CALM      30.33S
WEST JORDAN    CLEAR     40  25  54 CALM      30.33F

$$

UTZ011>015-024>027-171000-

CENTRAL/NORTHEAST UTAH

CITY           SKY/WX    TMP DP  RH WIND       PRES   REMARKS
PROVO AIRPORT  PTCLDY    37  26  64 CALM      30.35S
MOAB/CANYONLAN PTCLDY    39  12  33 CALM      30.33S
DELTA          MOCLDY    32  18  55 S8        30.33S WCI  25
PRICE          PTCLDY    37   6  27 CALM      30.37S
ROOSEVELT      CLOUDY    30  23  74 SW5       30.38S WCI  25
VERNAL         CLOUDY    32  18  56 W5        30.36S WCI  27

$$

UTZ013>016-019>022-027-171000-

SOUTHERN UTAH

CITY           SKY/WX    TMP DP  RH WIND       PRES   REMARKS
BRYCE CANYON   PTCLDY    28  -1  28 W10       30.47S WCI  19
CEDAR CITY     PTCLDY    37   6  27 CALM      30.34S
MILFORD        MOCLDY    34   9  35 S7        30.33S WCI  28
ST GEORGE      SUNNY     53   8  16 E3        30.24R
HANKSVILLE     MOCLDY    34  10  37 NW3       30.37S
BLANDING         N/A     38   9  29 N9        30.44S WCI  32

$$

REGIONAL REPORTS     COLORADO/ARIZONA

CITY           SKY/WX    TMP DP  RH WIND       PRES   REMARKS
CRAIG, CO      CLOUDY    22  15  75 CALM      30.40S
GRAND JUNCTION CLOUDY    38  13  35 E10       30.36S WCI  31
RIFLE, CO      CLOUDY    31  14  49 CALM      30.42R
MONTROSE, CO   CLOUDY    33  16  49 SE8       30.42F WCI  26
CORTEZ, CO     CLOUDY    28  16  60 NE8       30.40R WCI  20
COLORADO CITY    N/A     37  10  32 SE3       30.35S
PAGE, AZ       PTCLDY    48  14  25 W3        30.31R
GRAND CANYON   PTCLDY    31   7  36 CALM      30.42R
KINGMAN, AZ    CLEAR     54  15  21 CALM      30.21S
FLAGSTAFF, AZ  CLEAR     35  18  49 CALM      30.43R

$$

REGIONAL REPORTS    NEVADA/IDAHO/WYOMING

CITY           SKY/WX    TMP DP  RH WIND       PRES   REMARKS
LAS VEGAS, NV  PTCLDY    59  16  18 SW3       30.15R
ELY, NY        PTCLDY    32   0  25 S14       30.38R WCI  22
ELKO, NV       MOCLDY    35  14  42 NE5       30.32S WCI  31
POCATELLO, ID  CLOUDY    32  27  81 NE5       30.32R WCI  27
BURLEY, ID     CLEAR     32  27  81 CALM      30.28S
FORT BRIDGER,    N/A     46   0  15 W10       30.43S
EVANSTON, WY   CLOUDY    43   4  19 S6        30.41S
ROCK SPRINGS,  CLOUDY    43   2  18 SW13      30.37S
KEMMERER, WY   CLOUDY    32  12  43 NW3       30.41S

$$



USA.gov is the U.S. government's official web portal to all federal, state and local government web resources and services.